Tracking 33744 objects as of 12-Apr-2026
HD Live streaming from Space Station
objects crossing your sky now

IRIDIUM 163

Track IRIDIUM 163 now!
10-day predictions
IRIDIUM 163 is classified as:


NORAD ID: 43575
Int'l Code: 2018-061G
Perigee: 783.3 km
Apogee: 786.4 km
Inclination: 86.4 °
Period: 100.4 minutes
Semi major axis: 7155 km
RCS: Unknown
Launch date: July 25, 2018
Source: United States (US)
Launch site: AIR FORCE WESTERN TEST RANGE (AFWTR)
Your satellite tracking list
Your tracking list is empty




NASA's NSSDC Master Catalog

Two Line Element Set (TLE):
1 43575U 18061G   26102.00223379  .00000205  00000-0  66270-4 0  9999
2 43575  86.3920  84.3981 0002143  91.5135 268.6306 14.34213974403894
Source of the keplerian elements: AFSPC